SCOUT X-4 R/B, 1815

Orbit data source: Space-Track

SCOUT X-4 R/B, 1815 is space debris in LEO originally from a launch on Mon, 06 Dec 1965 UTC launched from the Air Force Western Test Range (AFWTR). Debris objects in space refer to the collection of defunct objects orbiting the Earth. Examples of debris include non-operational satellites, rocket bodies, and fragments generated from explosions, collisions, or faulty payload assembly.

Loading next visibility...
Identifier
1815, 1965-101B
Orbit
LEO
Country
Flag of USUS
Related business
Manufacturer
ABL
Mission
Spacecraft
Bus & Motor
ALTAIR, Unknown motor
Mass
33 kg wet, 33 kg dry
Launch date (UTC)
1965-12-06 (60 years ago)
Launch vehicle
Unknown
Launch site
Air Force Western Test Range (AFWTR)
Object type
Payload
Rocket body
Debris
Shape & HBR
Cyl, 0.8 m
Radar Cross Section
0.687 m², Medium (>0.1 m² and < 1m²)

Expand to show TLE details & history
Last TLE update: 17 hours ago

TLE from 17 hours ago
0 SCOUT X-4 R/B
1 01815U 65101B   25258.00549784  .00001987  00000-0  20888-3 0  9991
2 01815  75.8400 119.1159 0006459 142.4440 217.7204 14.89825979 27218
Epoch: 2025-09-15T00:07Z
TLE epoch observation values (Epoch: 2025-09-15T00:07:55.013Z)
Latitude
-0°
Longitude
122.92032°
Altitude
604.821 km
Speed
7.555 km/s
True Right ascension
07h 56m 27s
True Declination
0° 00' 00"
Sunlit
Object was in daylight at epoch
Visualization orbit readout
Latitude
Unknown
Longitude
Unknown
Altitude
Unknown
Speed
Unknown
Apparent Right ascension
Unknown
Apparent Declination
Unknown
Sunlit
N/A
Visualization observer readout
Local Sidereal Time
09:51:44
Azimuth
Unknown
Elevation
Unknown
Doppler factor
Unknown
Orbital elements
Apogee altitude
600.399 km
Perigee altitude
591.39 km
Semi-major axis
6,974.031 km
Eccentricity
0.00065
Inclination
75.84°
RAAN
119.1159°
Arg. of periapsis
142.444°
True anomaly
217.67515°
Mean anomaly
217.7204°
Eccentric anomaly
217.69777°
Mean motion
3.72664 °/min
Orbital period
96.6 mins
BSTAR
0.00020888
Loading maneuver chart data...
Computing Atmospheric mass density...
Loading historical data...
Loading historical data...
Loading historical data...
Loading historical data...
Loading historical data...
Loading historical data...
Loading historical data...

Documentation

Showing up to 5 results
|